Flag for Poland Weather past 2 weeks in Toruń, Poland

Now
57 °F

Clear.


Feels Like: 57 °F
Forecast: 53 / 73 °F
Wind: 2 mph from East

Location: Torun

Current Time: Sep 15, 2014 at 4:54:53 AM

Latest Report: Sep 15, 2014 at 4:00 AM


Visibility: 7 mi

Pressure: 30.19 "Hg

Humidity: 79%

Dew point: 51 °F

Location of ToruńLocation

Historic Weather in Toruń — Graph

°F

Toruń temperature yesterday

Maximum temperature yesterday: 81 °F (at 3:00 PM)
Minimum temperature yesterday: 61 °F (at 6:00 AM)
Average temperature yesterday: 69 °F

Past Weeks' High & Low Weather Summary

 TemperatureHumidityPressure
High81 °F (Sep 14, 3:00 PM)100% (Sep 9, 12:00 AM)30.34 "Hg (Sep 9, 12:00 AM)
Low44 °F (Sep 6, 5:00 AM)32% (Sep 14, 4:00 PM)29.88 "Hg (Aug 31, 7:00 PM)
Average62 °F72%30.07 "Hg
* Reported Aug 31 3:00 AM — Sep 15 3:00 AM, Toruń, Weather by CustomWeather, © 2014

Note: Actual official high and low records may vary slightly from our data, if they occured in-between our weather recording intervals... More about our weather records

Advertising

Toruń weather history for previous 24 hours

 ConditionsComfort  
Time TempWeatherWind HumidityBarometerVisibility
3:00 AM
Sep 15
59 °FClear.2 mph74%30.19 "Hg9 mi
2:00 AM60 °FClear.2 mph70%30.19 "Hg12 mi
1:00 AM61 °FClear.2 mph66%30.19 "Hg15 mi
12:00 AM63 °FClear.2 mph61%30.17 "Hg17 mi
11:00 PM
Sep 14
65 °FClear.2 mph58%30.17 "Hg19 mi
10:00 PM66 °FClear.2 mph56%30.16 "Hg18 mi
9:00 PM68 °FPassing clouds.1 mph53%30.15 "Hg22 mi
8:00 PM70 °FPassing clouds.2 mph50%30.15 "Hg19 mi
7:00 PM74 °FOvercast.2 mph42%30.13 "Hg25 mi
6:00 PM77 °FOvercast.5 mph37%30.12 "Hg25 mi
5:00 PM79 °FPartly sunny.5 mph33%30.12 "Hg18 mi
4:00 PM80 °FPartly sunny.6 mph32%30.12 "Hg19 mi
3:00 PM81 °FOvercast.5 mph33%30.12 "Hg19 mi
2:00 PM80 °FOvercast.6 mph34%30.13 "Hg17 mi
1:00 PM75 °FPartly sunny.2 mph55%30.14 "Hg14 mi
12:00 PM66 °FOvercast.1 mph67%30.16 "Hg14 mi
11:00 AM65 °FOvercast.2 mph68%30.16 "Hg13 mi
10:00 AM64 °FSprinkles. Overcast.5 mph67%30.15 "Hg9 mi
9:00 AM65 °FOvercast.5 mph67%30.14 "Hg15 mi
8:00 AM65 °FSprinkles. Overcast.5 mph63%30.13 "Hg14 mi
7:00 AM61 °FPartly sunny.2 mph73%30.13 "Hg11 mi
6:00 AM61 °FPassing clouds.1 mph76%30.13 "Hg9 mi
5:00 AM63 °FPassing clouds.3 mph73%30.12 "Hg9 mi
4:00 AM64 °FPassing clouds.3 mph72%30.12 "Hg9 mi
Weather by CustomWeather, © 2014

See weather overviewHow to use our weather pages